This demonstration page uses our WeatherBlox Daily Observations layout. Learn more.

Hourly Observations for May 22, 2015

Temp ( °F °C ) Dew Point ( °F °C ) Humidity (%) Winds ( mph kmh ) Pressure ( in mb ) Visibility ( mi km ) Precip ( " mm )
12:15 am 00:15 Clear 50 10.1 39 3.9 66 66 S 5 7 30.21 1023 10 16.0934 0 0
12:35 am 00:35 Clear 49 9.5 39 4 69 69 SSE 5 7 30.21 1023 10 16.0934 0 0
12:55 am 00:55 Clear 49 9.3 39 4.1 70 70 S 3 6 30.21 1023 10 16.0934 0 0
1:15 am 01:15 Clear 49 9.3 39 4.1 70 70 S 3 6 30.21 1023 10 16.0934 0 0
1:35 am 01:35 Clear 48 9 40 4.3 73 73 S 3 6 30.21 1023 10 16.0934 0 0
1:55 am 01:55 Clear 48 8.9 40 4.3 73 73 S 3 6 30.21 1023 10 16.0934 0 0
2:15 am 02:15 Clear 49 9.2 40 4.3 72 72 S 5 7 30.21 1023 10 16.0934 0 0
2:35 am 02:35 Clear 47 8.5 40 4.3 75 75 S 6 9 30.21 1023 10 16.0934 0 0
2:55 am 02:55 Clear 47 8.3 40 4.5 77 77 S 3 6 30.21 1023 10 16.0934 0 0
3:15 am 03:15 Clear 47 8.6 40 4.5 76 76 SSE 5 7 30.18 1022 10 16.0934 0 0
3:35 am 03:35 Clear 46 8 40 4.3 78 78 SSE 5 7 30.18 1022 10 16.0934 0 0
3:55 am 03:55 Clear 46 7.5 40 4.5 81 81 SE 5 7 30.18 1022 10 16.0934 0 0
4:15 am 04:15 Clear 46 7.7 41 5 83 83 SE 5 7 30.18 1022 10 16.0934 0 0
4:35 am 04:35 Clear 44 6.7 40 4.3 85 85 SSE 5 7 30.21 1023 10 16.0934 0 0
4:55 am 04:55 Clear 45 7 41 4.8 86 86 Calm 30.21 1023 10 16.0934 0 0
5:15 am 05:15 Clear 45 7.2 40 4.7 84 84 SE 3 6 30.21 1023 10 16.0934 0 0
5:35 am 05:35 Clear 45 7 41 5 87 87 ESE 5 7 30.21 1023 10 16.0934 0 0
5:55 am 05:55 Clear 45 7.3 41 5.2 87 87 SE 5 7 30.21 1023 10 16.0934 0 0
6:15 am 06:15 Sunny 46 7.5 41 5.1 85 85 SE 3 6 30.18 1022 10 16.0934 0 0
6:35 am 06:35 Sunny 45 7.1 41 5.1 87 87 ESE 5 7 30.18 1022 10 16.0934 0 0
6:55 am 06:55 Sunny 46 7.9 42 5.7 86 86 SSE 6 9 30.18 1022 10 16.0934 0 0
7:15 am 07:15 Sunny 47 8.3 42 5.7 84 84 SE 5 7 30.18 1022 10 16.0934 0 0
7:35 am 07:35 Sunny 47 8.5 43 6.1 85 85 SE 5 7 30.18 1022 10 16.0934 0 0
7:55 am 07:55 Mostly Cloudy 48 9.1 44 6.6 85 85 SSE 5 7 30.18 1022 10 16.0934 0 0
8:15 am 08:15 Cloudy 49 9.6 44 6.6 82 82 SSE 7 11 30.18 1022 10 16.0934 0 0
8:35 am 08:35 Cloudy with Light Rain 50 10 45 7 82 82 SSE 8 13 30.18 1022 10 16.0934 0 0
8:55 am 08:55 Cloudy with Light Rain 49 9.7 45 7.3 85 85 SSE 8 13 30.21 1023 10 16.0934 0 0
9:15 am 09:15 Mostly Cloudy with Drizzle 50 10 46 7.5 85 85 SSE 9 15 30.18 1022 10 16.0934 0 0
9:35 am 09:35 Cloudy with Light Rain 49 9.6 46 7.5 87 87 SSE 13 20 30.21 1023 10 16.0934 0.01 0.254
9:55 am 09:55 Cloudy with Rain 49 9.4 46 7.7 89 89 S 12 19 30.21 1023 7 11.26538 0.05 1.27
10:15 am 10:15 Cloudy with Rain 49 9.3 46 7.8 90 90 S 12 19 30.21 1023 7 11.26538 0.04 1.016
10:35 am 10:35 Cloudy with Rain 49 9.3 46 8 92 92 SSE 8 13 30.21 1023 4 6.43736 0.11 2.794
10:55 am 10:55 Cloudy with Light Rain 49 9.6 47 8.2 91 91 S 12 19 30.21 1023 10 16.0934 0.12 3.048
11:15 am 11:15 Cloudy with Light Drizzle 49 9.5 46 7.5 87 87 S 13 20 30.21 1023 10 16.0934 0 0
11:35 am 11:35 Cloudy with Rain 48 8.8 44 6.8 87 87 SSE 14 22 30.21 1023 5 8.0467 0.01 0.254
11:55 am 11:55 Cloudy with Light Rain 48 8.9 44 6.8 87 87 SE 15 24 30.21 1023 7 11.26538 0.01 0.254
12:10 pm 12:10 Cloudy with Light Rain 48 8.7 43 6.3 85 85 SE 13 20 30.21 1023 5 8.0467 0.01 0.254
12:35 pm 12:35 Cloudy 48 9.1 45 7.1 87 87 ESE 9 15 30.21 1023 10 16.0934 0.01 0.254
12:55 pm 12:55 Cloudy 49 9.5 45 7 85 85 ESE 9 15 30.21 1023 10 16.0934 0.01 0.254
1:15 pm 13:15 Cloudy 49 9.7 45 7 83 83 E 15 24 30.21 1023 10 16.0934 0 0
1:35 pm 13:35 Cloudy 50 10 45 7.1 82 82 E 13 20 30.21 1023 10 16.0934 0 0
1:55 pm 13:55 Cloudy 50 10.1 45 7 81 81 E 12 19 30.21 1023 10 16.0934 0 0
2:15 pm 14:15 Cloudy with Light Rain 50 9.8 45 7 83 83 E 15 24 30.18 1022 10 16.0934 0 0
2:35 pm 14:35 Cloudy with Light Rain 50 9.8 46 7.6 86 86 E 12 19 30.18 1022 7 11.26538 0.02 0.508
2:55 pm 14:55 Cloudy with Light Rain 50 9.8 46 8 89 89 E 14 22 30.18 1022 5 8.0467 0.04 1.016
3:15 pm 15:15 Cloudy with Light Rain 50 10 47 8.3 89 89 E 15 24 30.15 1021 7 11.26538 0.01 0.254
3:35 pm 15:35 Cloudy with Light Rain 50 10 47 8.5 91 91 E 14 22 30.15 1021 4 6.43736 0.02 0.508
3:55 pm 15:55 Cloudy with Light Rain 50 10 48 8.8 92 92 E 17 28 30.15 1021 2 3.21868 0.04 1.016
4:15 pm 16:15 Cloudy with Light Rain 50 10.1 48 9.1 94 94 E 15 24 30.15 1021 3 4.82802 0.01 0.254
4:35 pm 16:35 Cloudy with Light Rain 51 10.3 49 9.2 93 93 E 15 24 30.15 1021 2.5 4.02335 0.01 0.254
4:55 pm 16:55 Cloudy with Light Rain 51 10.5 49 9.2 92 92 ESE 16 26 30.12 1020 2.5 4.02335 0.02 0.508
5:15 pm 17:15 Cloudy with Light Rain 51 10.3 48 9.1 92 92 ESE 18 30 30.15 1021 2 3.21868 0 0
5:35 pm 17:35 Cloudy with Light Rain 50 10.1 48 9 93 93 ESE 17 28 30.15 1021 2.5 4.02335 0 0
5:55 pm 17:55 Cloudy with Light Rain 50 10.1 48 9.1 94 94 ESE 16 26 30.15 1021 2 3.21868 0.01 0.254
6:15 pm 18:15 Cloudy with Light Rain 50 10.1 49 9.2 94 94 ESE 16 26 30.15 1021 1.75 2.816345 0 0
6:35 pm 18:35 Cloudy with Light Rain 51 10.3 49 9.5 95 95 ESE 17 28 30.15 1021 1.75 2.816345 0 0
6:55 pm 18:55 Cloudy with Light Rain 51 10.3 49 9.5 95 95 ESE 16 26 30.15 1021 2 3.21868 0 0
7:15 pm 19:15 Cloudy with Light Rain 51 10.5 49 9.6 94 94 ESE 15 24 30.12 1020 2.5 4.02335 0 0
7:35 pm 19:35 Cloudy with Mist and Fog 51 10.5 49 9.6 94 94 ESE 15 24 30.12 1020 5 8.0467 0 0
7:55 pm 19:55 Cloudy 51 10.6 50 9.8 95 95 ESE 14 22 30.12 1020 7 11.26538 0 0
8:15 pm 20:15 Cloudy 51 10.7 50 10 95 95 ESE 14 22 30.12 1020 10 16.0934 0 0
8:35 pm 20:35 Cloudy 51 10.8 50 10 95 95 ESE 13 20 30.12 1020 10 16.0934 0 0
8:55 pm 20:55 Cloudy with Mist and Fog 51 10.8 50 10 95 95 ESE 14 22 30.12 1020 5 8.0467 0 0
9:15 pm 21:15 Cloudy with Mist and Fog 51 10.8 50 10 95 95 ESE 12 19 30.12 1020 5 8.0467 0 0
9:35 pm 21:35 Cloudy with Mist and Fog 52 11 50 10.1 94 94 ESE 15 24 30.12 1020 5 8.0467 0 0
9:55 pm 21:55 Cloudy with Mist and Fog 52 11 50 10.2 95 95 SE 15 24 30.12 1020 4 6.43736 0 0
10:15 pm 22:15 Cloudy with Mist and Fog 52 11.1 51 10.5 96 96 SE 14 22 30.12 1020 2.5 4.02335 0 0
10:35 pm 22:35 Cloudy with Mist and Fog 53 11.4 51 10.7 96 96 SE 14 22 30.12 1020 3 4.82802 0 0
10:55 pm 22:55 Cloudy with Mist and Fog 53 11.5 52 10.9 96 96 SE 15 24 30.12 1020 3 4.82802 0 0
11:15 pm 23:15 Cloudy with Mist and Fog 53 11.6 52 11 96 96 SSE 14 22 30.12 1020 4 6.43736 0 0
11:35 pm 23:35 Cloudy with Mist and Fog 53 11.6 52 11 96 96 SE 12 19 30.12 1020 2.5 4.02335 0 0
11:55 pm 23:55 Cloudy with Mist and Fog 53 11.5 51 10.8 96 96 SE 20 31 30.12 1020 2.5 4.02335 0 0

Powered by AerisWeather